CCA322T ZSPD-ZBAD

Flight info

Callsign CCA322T
Flight time 1h 38m
Altitude 34100
Route POMOK G330 PIMOL A593 DALIM W157 BEKDO/K0913S1010 W157 AVBOX AVBOX5L
Aircraft B77W/H-SDE1E2E3FGHIJ2J3J4J5M1RWXY/LB1D1

Departure

Time 2026-04-12 02:41
Airport Shanghai Pudong International Airport (ZSPD)

Arrival

Time 2026-04-12 04:19
Airport Beijing Daxing International Airport (ZBAD)
Time Latitude Longitude Altitude Speed Heading
2026-04-12 02:04 31.13251 121.80345 28 ft 0 kts 72°
2026-04-12 02:23 31.13247 121.80332 28 ft 3 kts 72°
2026-04-12 02:23 31.13241 121.80310 28 ft 3 kts 72°
2026-04-12 02:23 31.13235 121.80288 26 ft 3 kts 72°
2026-04-12 02:24 31.13231 121.80272 25 ft 3 kts 63°
2026-04-12 02:24 31.13221 121.80257 26 ft 3 kts 14°
2026-04-12 02:24 31.13202 121.80257 26 ft 3 kts 342°
2026-04-12 02:24 31.13186 121.80263 26 ft 1 kts 342°
2026-04-12 02:25 31.13185 121.80264 26 ft 0 kts 342°
2026-04-12 02:29 31.13192 121.80261 26 ft 2 kts 342°
2026-04-12 02:29 31.13213 121.80253 25 ft 4 kts 342°
2026-04-12 02:30 31.13248 121.80240 28 ft 6 kts 342°
2026-04-12 02:30 31.13296 121.80222 28 ft 8 kts 342°
2026-04-12 02:30 31.13355 121.80200 28 ft 10 kts 342°
2026-04-12 02:30 31.13427 121.80173 28 ft 12 kts 342°
2026-04-12 02:31 31.13510 121.80142 28 ft 13 kts 342°
2026-04-12 02:31 31.13605 121.80105 27 ft 15 kts 342°
2026-04-12 02:31 31.13705 121.80068 28 ft 16 kts 342°
2026-04-12 02:31 31.13814 121.80027 28 ft 17 kts 342°
2026-04-12 02:32 31.13925 121.79985 28 ft 15 kts 342°
2026-04-12 02:32 31.14024 121.79947 28 ft 10 kts 342°
2026-04-12 02:32 31.14054 121.79936 28 ft 0 kts 342°
2026-04-12 02:32 31.14068 121.79928 28 ft 5 kts 330°
2026-04-12 02:33 31.14078 121.79840 28 ft 19 kts 249°
2026-04-12 02:33 31.14043 121.79739 28 ft 9 kts 258°
2026-04-12 02:33 31.14033 121.79668 28 ft 9 kts 263°
2026-04-12 02:33 31.14061 121.79606 28 ft 9 kts 324°
2026-04-12 02:34 31.14121 121.79575 28 ft 10 kts 340°
2026-04-12 02:34 31.14192 121.79548 27 ft 12 kts 342°
2026-04-12 02:34 31.14290 121.79510 28 ft 19 kts 342°
2026-04-12 02:34 31.14426 121.79459 27 ft 21 kts 342°
2026-04-12 02:35 31.14564 121.79407 28 ft 21 kts 342°
2026-04-12 02:35 31.14702 121.79356 28 ft 21 kts 342°
2026-04-12 02:35 31.14844 121.79302 28 ft 21 kts 342°
2026-04-12 02:35 31.14982 121.79250 28 ft 21 kts 342°
2026-04-12 02:36 31.15120 121.79198 28 ft 21 kts 342°
2026-04-12 02:36 31.15258 121.79145 28 ft 21 kts 342°
2026-04-12 02:36 31.15396 121.79093 27 ft 21 kts 341°
2026-04-12 02:36 31.15534 121.79041 27 ft 21 kts 342°
2026-04-12 02:37 31.15672 121.78989 27 ft 21 kts 342°
2026-04-12 02:37 31.15810 121.78937 27 ft 21 kts 342°
2026-04-12 02:37 31.15902 121.78903 28 ft 21 kts 342°
2026-04-12 02:37 31.16036 121.78852 28 ft 20 kts 342°
2026-04-12 02:38 31.16135 121.78813 28 ft 6 kts 330°
2026-04-12 02:38 31.16155 121.78768 28 ft 6 kts 276°
2026-04-12 02:38 31.16146 121.78734 28 ft 7 kts 249°
2026-04-12 02:38 31.16128 121.78681 28 ft 8 kts 250°
2026-04-12 02:39 31.16099 121.78628 27 ft 8 kts 212°
2026-04-12 02:39 31.16042 121.78631 27 ft 9 kts 165°
2026-04-12 02:39 31.16034 121.78634 27 ft 0 kts 163°
2026-04-12 02:40 31.15887 121.78687 27 ft 61 kts 162°
2026-04-12 02:40 31.15218 121.78945 27 ft 139 kts 161°
2026-04-12 02:40 31.14153 121.79422 301 ft 173 kts 156°
2026-04-12 02:41 31.13041 121.79854 1192 ft 168 kts 159°
2026-04-12 02:41 31.11895 121.80216 1991 ft 173 kts 162°
2026-04-12 02:41 31.10651 121.80600 2433 ft 196 kts 162°
2026-04-12 02:41 31.09255 121.81051 2839 ft 221 kts 164°
2026-04-12 02:42 31.07704 121.81547 2984 ft 238 kts 165°
2026-04-12 02:42 31.06105 121.82057 3013 ft 240 kts 165°
2026-04-12 02:42 31.04486 121.82577 3261 ft 243 kts 165°
2026-04-12 02:43 31.01107 121.83011 4830 ft 253 kts 198°
2026-04-12 02:43 30.99582 121.82003 5574 ft 257 kts 221°
2026-04-12 02:43 30.98455 121.80390 5901 ft 262 kts 241°
2026-04-12 02:43 30.97783 121.78386 5922 ft 271 kts 251°
2026-04-12 02:44 30.97248 121.76286 5922 ft 269 kts 251°
2026-04-12 02:44 30.96720 121.74228 5925 ft 264 kts 250°
2026-04-12 02:44 30.96253 121.72158 5898 ft 264 kts 262°
2026-04-12 02:44 30.96477 121.70039 6098 ft 267 kts 280°
2026-04-12 02:45 30.96893 121.67920 6946 ft 270 kts 279°
2026-04-12 02:45 30.97284 121.65780 7929 ft 270 kts 279°
2026-04-12 02:45 30.97676 121.63628 8873 ft 273 kts 279°
2026-04-12 02:45 30.98075 121.61459 9817 ft 275 kts 279°
2026-04-12 02:46 30.98478 121.59262 10591 ft 282 kts 279°
2026-04-12 02:46 30.98905 121.56932 10905 ft 309 kts 279°
2026-04-12 02:46 30.99375 121.54370 11118 ft 337 kts 280°
2026-04-12 02:46 30.99881 121.51620 11624 ft 354 kts 280°
2026-04-12 02:47 31.00402 121.48790 12570 ft 359 kts 280°
2026-04-12 02:47 31.00929 121.45932 13693 ft 361 kts 280°
2026-04-12 02:47 31.01456 121.43069 14691 ft 362 kts 279°
2026-04-12 02:47 31.01986 121.40193 15665 ft 365 kts 279°
2026-04-12 02:48 31.02518 121.37297 16620 ft 367 kts 278°
2026-04-12 02:48 31.03052 121.34383 17554 ft 370 kts 278°
2026-04-12 02:48 31.03591 121.31439 18421 ft 373 kts 277°
2026-04-12 02:48 31.04133 121.28474 19138 ft 377 kts 277°
2026-04-12 02:49 31.04682 121.25462 19871 ft 383 kts 277°
2026-04-12 02:49 31.05230 121.22458 20721 ft 384 kts 277°
2026-04-12 02:49 31.05952 121.19455 21421 ft 395 kts 287°
2026-04-12 02:49 31.07471 121.16673 22138 ft 419 kts 302°
2026-04-12 02:50 31.09685 121.14312 22689 ft 445 kts 316°
2026-04-12 02:50 31.12465 121.12556 23249 ft 467 kts 330°
2026-04-12 02:50 31.15724 121.11733 23671 ft 491 kts 347°
2026-04-12 02:50 31.19184 121.11604 24138 ft 503 kts 352°
2026-04-12 02:51 31.22691 121.11628 24675 ft 505 kts 351°
2026-04-12 02:51 31.26188 121.11544 25246 ft 503 kts 349°
2026-04-12 02:51 31.29683 121.11356 25804 ft 503 kts 348°
2026-04-12 02:51 31.33186 121.11128 26320 ft 506 kts 348°
2026-04-12 02:52 31.36712 121.10950 26819 ft 513 kts 351°
2026-04-12 02:52 31.40233 121.11129 27317 ft 521 kts 356°
2026-04-12 02:52 31.43904 121.11360 27764 ft 515 kts 348°
2026-04-12 02:52 31.47364 121.10710 28050 ft 493 kts 330°
2026-04-12 02:53 31.50416 121.09083 28407 ft 480 kts 323°
2026-04-12 02:53 31.53427 121.07330 28758 ft 485 kts 323°
2026-04-12 02:53 31.59545 121.03932 29623 ft 491 kts 324°
2026-04-12 02:54 31.62633 121.02274 30005 ft 493 kts 325°
2026-04-12 02:54 31.65753 121.00616 30417 ft 492 kts 325°
2026-04-12 02:54 31.68846 120.98981 31041 ft 487 kts 324°
2026-04-12 02:54 31.71904 120.97367 31785 ft 478 kts 324°
2026-04-12 02:55 31.74905 120.95776 32413 ft 473 kts 324°
2026-04-12 02:55 31.77889 120.94182 32906 ft 471 kts 324°
2026-04-12 02:55 31.80818 120.92610 33331 ft 470 kts 323°
2026-04-12 02:55 31.83784 120.91018 33764 ft 469 kts 323°
2026-04-12 02:56 31.86734 120.89436 34187 ft 466 kts 323°
2026-04-12 02:56 31.89681 120.87857 34616 ft 463 kts 323°
2026-04-12 02:56 31.92598 120.86294 35055 ft 460 kts 323°
2026-04-12 02:56 31.95488 120.84744 35458 ft 458 kts 323°
2026-04-12 02:57 31.98364 120.83201 35894 ft 456 kts 323°
2026-04-12 02:57 32.01233 120.81659 36275 ft 454 kts 323°
2026-04-12 02:57 32.04081 120.80126 36665 ft 451 kts 323°
2026-04-12 02:57 32.06923 120.78595 37034 ft 449 kts 323°
2026-04-12 02:58 32.09752 120.77069 37414 ft 447 kts 323°
2026-04-12 02:58 32.12560 120.75554 37757 ft 446 kts 323°
2026-04-12 02:58 32.15375 120.74032 37874 ft 449 kts 323°
2026-04-12 02:58 32.18209 120.72499 37957 ft 449 kts 323°
2026-04-12 02:59 32.23863 120.69451 37960 ft 443 kts 323°
2026-04-12 02:59 32.29392 120.66410 37953 ft 431 kts 316°
2026-04-12 03:00 32.31592 120.64226 37972 ft 407 kts 300°
2026-04-12 03:00 32.33032 120.61441 37973 ft 394 kts 287°
2026-04-12 03:00 32.34213 120.55258 37953 ft 391 kts 270°
2026-04-12 03:01 32.33721 120.48879 37961 ft 393 kts 258°
2026-04-12 03:01 32.32853 120.45813 37944 ft 399 kts 246°
2026-04-12 03:01 32.31190 120.43149 37960 ft 410 kts 235°
2026-04-12 03:02 32.27371 120.38134 37954 ft 412 kts 236°
2026-04-12 03:02 32.23712 120.32967 37924 ft 405 kts 242°
2026-04-12 03:03 32.22453 120.30072 37939 ft 395 kts 253°
2026-04-12 03:03 32.21635 120.27001 37938 ft 393 kts 257°
2026-04-12 03:03 32.20877 120.20675 37929 ft 391 kts 271°
2026-04-12 03:04 32.21434 120.14270 37942 ft 393 kts 274°
2026-04-12 03:04 32.22047 120.07869 37943 ft 395 kts 273°
2026-04-12 03:05 32.22594 120.01438 37935 ft 394 kts 273°
2026-04-12 03:05 32.23111 119.95016 37935 ft 394 kts 273°
2026-04-12 03:06 32.23623 119.88593 37949 ft 394 kts 273°
2026-04-12 03:06 32.24178 119.82169 37936 ft 396 kts 278°
2026-04-12 03:07 32.25088 119.79081 37957 ft 404 kts 289°
2026-04-12 03:07 32.26485 119.76167 37957 ft 410 kts 295°
2026-04-12 03:07 32.30295 119.71097 37948 ft 428 kts 313°
2026-04-12 03:08 32.35161 119.67095 37935 ft 429 kts 314°
2026-04-12 03:08 32.40020 119.63056 37941 ft 427 kts 313°
2026-04-12 03:09 32.44832 119.58948 37951 ft 427 kts 313°
2026-04-12 03:09 32.49636 119.54820 37944 ft 428 kts 313°
2026-04-12 03:10 32.54452 119.50655 37946 ft 431 kts 313°
2026-04-12 03:10 32.59283 119.46474 37955 ft 432 kts 312°
2026-04-12 03:11 32.64085 119.42317 37954 ft 431 kts 312°
2026-04-12 03:11 32.68895 119.38147 37954 ft 430 kts 312°
2026-04-12 03:12 32.73698 119.33975 37952 ft 429 kts 312°
2026-04-12 03:12 32.78491 119.29806 37956 ft 429 kts 312°
2026-04-12 03:13 32.83260 119.25653 37959 ft 429 kts 312°
2026-04-12 03:13 32.88037 119.21485 37967 ft 429 kts 312°
2026-04-12 03:14 32.92820 119.17308 37967 ft 430 kts 312°
2026-04-12 03:14 32.97640 119.13117 37962 ft 431 kts 312°
2026-04-12 03:15 33.02478 119.08941 37959 ft 431 kts 312°
2026-04-12 03:15 33.07378 119.04703 37973 ft 431 kts 312°
2026-04-12 03:16 33.12213 119.00509 37966 ft 431 kts 312°
2026-04-12 03:16 33.17038 118.96318 38027 ft 431 kts 312°
2026-04-12 03:17 33.21876 118.92111 37988 ft 432 kts 312°
2026-04-12 03:17 33.26738 118.87891 37971 ft 433 kts 312°
2026-04-12 03:18 33.31588 118.83680 37981 ft 433 kts 313°
2026-04-12 03:18 33.36444 118.79486 37979 ft 433 kts 313°
2026-04-12 03:19 33.41302 118.75283 37985 ft 433 kts 313°
2026-04-12 03:19 33.46146 118.71084 38012 ft 433 kts 313°
2026-04-12 03:20 33.51014 118.66866 37998 ft 433 kts 313°
2026-04-12 03:20 33.55869 118.62663 38019 ft 434 kts 313°
2026-04-12 03:21 33.60732 118.58447 37988 ft 434 kts 313°
2026-04-12 03:21 33.65600 118.54219 37991 ft 434 kts 313°
2026-04-12 03:22 33.70562 118.49902 37988 ft 434 kts 313°
2026-04-12 03:22 33.75438 118.45653 38029 ft 434 kts 313°
2026-04-12 03:23 33.80274 118.41432 37997 ft 435 kts 313°
2026-04-12 03:23 33.84379 118.37845 37993 ft 435 kts 313°
2026-04-12 03:24 33.90060 118.32874 38003 ft 435 kts 313°
2026-04-12 03:24 33.94961 118.28578 37993 ft 436 kts 313°
2026-04-12 03:25 33.99071 118.24979 37999 ft 436 kts 313°
2026-04-12 03:25 34.03991 118.20690 37997 ft 436 kts 313°
2026-04-12 03:26 34.08883 118.16418 37992 ft 437 kts 313°
2026-04-12 03:26 34.13806 118.12103 37994 ft 438 kts 313°
2026-04-12 03:27 34.18736 118.07775 37995 ft 438 kts 313°
2026-04-12 03:27 34.23672 118.03446 38003 ft 440 kts 314°
2026-04-12 03:28 34.26311 118.01480 38003 ft 451 kts 320°
2026-04-12 03:28 34.29135 117.99773 38009 ft 457 kts 323°
2026-04-12 03:28 34.35179 117.97044 38011 ft 472 kts 331°
2026-04-12 03:29 34.41481 117.94846 37995 ft 473 kts 332°
2026-04-12 03:29 34.47792 117.92664 37997 ft 472 kts 332°
2026-04-12 03:30 34.54082 117.90436 37999 ft 471 kts 332°
2026-04-12 03:30 34.60368 117.88183 38021 ft 471 kts 332°
2026-04-12 03:31 34.66635 117.85932 37999 ft 471 kts 332°
2026-04-12 03:31 34.72913 117.83678 37996 ft 470 kts 332°
2026-04-12 03:32 34.79185 117.81423 37989 ft 470 kts 332°
2026-04-12 03:32 34.85462 117.79176 38028 ft 470 kts 332°
2026-04-12 03:33 34.91731 117.76910 38013 ft 469 kts 332°
2026-04-12 03:33 34.97985 117.74627 37988 ft 470 kts 332°
2026-04-12 03:34 35.04250 117.72340 38000 ft 469 kts 332°
2026-04-12 03:34 35.10505 117.70055 38014 ft 469 kts 332°
2026-04-12 03:35 35.16758 117.67760 37999 ft 469 kts 332°
2026-04-12 03:35 35.23011 117.65459 37993 ft 468 kts 332°
2026-04-12 03:36 35.29253 117.63160 37978 ft 468 kts 332°
2026-04-12 03:36 35.35489 117.60858 38026 ft 468 kts 332°
2026-04-12 03:37 35.41740 117.58547 37986 ft 469 kts 332°
2026-04-12 03:37 35.47978 117.56239 37991 ft 469 kts 332°
2026-04-12 03:38 35.54223 117.53925 37981 ft 468 kts 332°
2026-04-12 03:38 35.60451 117.51614 37999 ft 468 kts 332°
2026-04-12 03:39 35.66687 117.49292 37985 ft 468 kts 332°
2026-04-12 03:39 35.72924 117.46968 37998 ft 468 kts 332°
2026-04-12 03:40 35.79162 117.44641 37985 ft 469 kts 332°
2026-04-12 03:40 35.85377 117.42318 38003 ft 470 kts 332°
2026-04-12 03:41 35.91573 117.39999 37993 ft 470 kts 332°
2026-04-12 03:41 35.97814 117.37659 37982 ft 470 kts 332°
2026-04-12 03:42 36.04060 117.35325 37986 ft 470 kts 333°
2026-04-12 03:42 36.10334 117.33003 37985 ft 471 kts 333°
2026-04-12 03:43 36.16581 117.30695 37978 ft 470 kts 333°
2026-04-12 03:43 36.22824 117.28379 37979 ft 469 kts 333°
2026-04-12 03:44 36.29039 117.26064 37981 ft 468 kts 333°
2026-04-12 03:44 36.35258 117.23743 37989 ft 468 kts 333°
2026-04-12 03:45 36.41487 117.21410 37971 ft 466 kts 332°
2026-04-12 03:45 36.47395 117.18506 37980 ft 459 kts 327°
2026-04-12 03:46 36.53255 117.15395 37980 ft 460 kts 328°
2026-04-12 03:46 36.59139 117.12293 37963 ft 461 kts 328°
2026-04-12 03:47 36.65053 117.09201 37958 ft 461 kts 328°
2026-04-12 03:47 36.70962 117.06117 37958 ft 460 kts 328°
2026-04-12 03:48 36.76865 117.03031 37953 ft 460 kts 328°
2026-04-12 03:48 36.82764 116.99939 37973 ft 460 kts 328°
2026-04-12 03:49 36.88656 116.96846 37957 ft 460 kts 328°
2026-04-12 03:49 36.94530 116.93757 37947 ft 460 kts 328°
2026-04-12 03:50 37.00421 116.90655 37950 ft 460 kts 328°
2026-04-12 03:50 37.06294 116.87556 37980 ft 460 kts 329°
2026-04-12 03:51 37.12140 116.84465 37952 ft 461 kts 329°
2026-04-12 03:51 37.18029 116.81347 37942 ft 461 kts 329°
2026-04-12 03:52 37.24007 116.78440 37950 ft 467 kts 334°
2026-04-12 03:52 37.30238 116.76098 37942 ft 469 kts 335°
2026-04-12 03:53 37.36471 116.73807 37941 ft 469 kts 335°
2026-04-12 03:53 37.42682 116.71483 37938 ft 469 kts 335°
2026-04-12 03:54 37.48908 116.69125 37940 ft 469 kts 335°
2026-04-12 03:54 37.55142 116.66756 37966 ft 468 kts 335°
2026-04-12 03:55 37.61356 116.64392 37937 ft 468 kts 335°
2026-04-12 03:55 37.67530 116.62040 37935 ft 468 kts 335°
2026-04-12 03:56 37.73740 116.59670 37935 ft 468 kts 335°
2026-04-12 03:56 37.79964 116.57290 37957 ft 468 kts 335°
2026-04-12 03:57 37.86180 116.54907 37553 ft 474 kts 335°
2026-04-12 03:57 37.89353 116.53686 36799 ft 478 kts 336°
2026-04-12 03:57 37.92510 116.52475 36084 ft 475 kts 336°
2026-04-12 03:58 37.95566 116.51044 35288 ft 469 kts 330°
2026-04-12 03:58 37.98470 116.49252 34459 ft 466 kts 327°
2026-04-12 03:58 38.01252 116.47175 33527 ft 464 kts 322°
2026-04-12 03:58 38.03864 116.44803 32559 ft 463 kts 319°
2026-04-12 03:59 38.06437 116.42387 31601 ft 465 kts 319°
2026-04-12 03:59 38.09049 116.39959 30626 ft 468 kts 320°
2026-04-12 03:59 38.11677 116.37547 29913 ft 465 kts 320°
2026-04-12 03:59 38.14286 116.35151 29081 ft 462 kts 320°
2026-04-12 04:00 38.20762 116.29164 27319 ft 451 kts 320°
2026-04-12 04:00 38.32666 116.26440 24765 ft 461 kts 13°
2026-04-12 04:00 38.44748 116.30870 22413 ft 445 kts 12°
2026-04-12 04:00 38.56788 116.35028 19791 ft 432 kts 12°
2026-04-12 04:01 38.68127 116.39290 17491 ft 421 kts 19°
2026-04-12 04:01 38.78556 116.45125 15258 ft 408 kts 22°
2026-04-12 04:01 38.88981 116.50773 12896 ft 396 kts 22°
2026-04-12 04:01 38.99018 116.56185 10700 ft 383 kts 22°
2026-04-12 04:02 39.06689 116.60312 10076 ft 363 kts 19°
2026-04-12 04:02 39.11773 116.60463 10076 ft 360 kts 350°
2026-04-12 04:02 39.14169 116.60017 9900 ft 340 kts 351°
2026-04-12 04:03 39.16512 116.59618 9668 ft 319 kts 351°
2026-04-12 04:03 39.18638 116.59274 9342 ft 300 kts 351°
2026-04-12 04:03 39.20660 116.58953 8942 ft 287 kts 352°
2026-04-12 04:03 39.22610 116.58644 8516 ft 276 kts 352°
2026-04-12 04:04 39.24470 116.58355 8182 ft 263 kts 352°
2026-04-12 04:04 39.26271 116.58071 7894 ft 260 kts 352°
2026-04-12 04:04 39.28064 116.57789 7588 ft 260 kts 352°
2026-04-12 04:04 39.29843 116.57510 7294 ft 259 kts 352°
2026-04-12 04:05 39.31624 116.57233 6989 ft 258 kts 352°
2026-04-12 04:05 39.33386 116.56962 6820 ft 254 kts 352°
2026-04-12 04:05 39.35133 116.56692 6661 ft 256 kts 352°
2026-04-12 04:05 39.36909 116.56410 6518 ft 260 kts 353°
2026-04-12 04:06 39.38699 116.56132 6353 ft 262 kts 353°
2026-04-12 04:06 39.40496 116.55850 6193 ft 260 kts 353°
2026-04-12 04:06 39.42273 116.55572 6020 ft 258 kts 353°
2026-04-12 04:06 39.44031 116.55292 5876 ft 256 kts 353°
2026-04-12 04:07 39.45790 116.55022 5728 ft 254 kts 353°
2026-04-12 04:07 39.47511 116.54751 5584 ft 251 kts 353°
2026-04-12 04:07 39.49224 116.54485 5446 ft 249 kts 353°
2026-04-12 04:07 39.50929 116.54232 5290 ft 247 kts 355°
2026-04-12 04:08 39.52626 116.54004 5159 ft 245 kts 353°
2026-04-12 04:08 39.54304 116.53724 4992 ft 244 kts 353°
2026-04-12 04:08 39.55977 116.53445 4891 ft 242 kts 354°
2026-04-12 04:08 39.57633 116.53177 4807 ft 240 kts 354°
2026-04-12 04:09 39.59281 116.52913 4709 ft 242 kts 354°
2026-04-12 04:09 39.61024 116.52636 4605 ft 244 kts 354°
2026-04-12 04:09 39.62711 116.52371 4517 ft 244 kts 354°
2026-04-12 04:09 39.64399 116.52105 4412 ft 245 kts 354°
2026-04-12 04:10 39.66085 116.51840 4301 ft 245 kts 354°
2026-04-12 04:10 39.67198 116.51666 4250 ft 244 kts 354°
2026-04-12 04:10 39.69429 116.51315 4104 ft 239 kts 354°
2026-04-12 04:10 39.70512 116.51143 4049 ft 237 kts 353°
2026-04-12 04:11 39.72153 116.50883 3943 ft 238 kts 353°
2026-04-12 04:11 39.73789 116.50624 3872 ft 239 kts 354°
2026-04-12 04:11 39.75447 116.50365 3768 ft 240 kts 354°
2026-04-12 04:11 39.77574 116.49900 3643 ft 230 kts 339°
2026-04-12 04:12 39.78487 116.49186 3576 ft 226 kts 321°
2026-04-12 04:12 39.79440 116.47593 3506 ft 227 kts 299°
2026-04-12 04:12 39.79935 116.45641 3389 ft 230 kts 279°
2026-04-12 04:12 39.79822 116.43547 3331 ft 234 kts 265°
2026-04-12 04:13 39.79586 116.41447 3213 ft 237 kts 267°
2026-04-12 04:13 39.79371 116.39320 3100 ft 238 kts 267°
2026-04-12 04:13 39.79102 116.37221 2996 ft 236 kts 254°
2026-04-12 04:13 39.78188 116.35449 2913 ft 242 kts 220°
2026-04-12 04:14 39.76678 116.34570 2825 ft 246 kts 187°
2026-04-12 04:14 39.74991 116.34782 2797 ft 244 kts 164°
2026-04-12 04:14 39.73320 116.35277 2691 ft 249 kts 169°
2026-04-12 04:14 39.71602 116.35588 2612 ft 250 kts 173°
2026-04-12 04:15 39.69888 116.35850 2494 ft 248 kts 173°
2026-04-12 04:15 39.68185 116.36112 2470 ft 246 kts 173°
2026-04-12 04:15 39.66516 116.36320 2381 ft 237 kts 171°
2026-04-12 04:15 39.64921 116.36663 2209 ft 229 kts 169°
2026-04-12 04:16 39.63367 116.36920 2074 ft 221 kts 173°
2026-04-12 04:16 39.61868 116.37146 2062 ft 213 kts 171°
2026-04-12 04:16 39.60410 116.37362 1758 ft 211 kts 173°
2026-04-12 04:16 39.58955 116.37580 1495 ft 211 kts 173°
2026-04-12 04:17 39.57514 116.37815 1219 ft 205 kts 172°
2026-04-12 04:17 39.56141 116.38029 970 ft 193 kts 172°
2026-04-12 04:17 39.54854 116.38236 736 ft 181 kts 172°
2026-04-12 04:17 39.53660 116.38425 466 ft 163 kts 172°
2026-04-12 04:18 39.52610 116.38591 253 ft 144 kts 171°
2026-04-12 04:18 39.51613 116.38751 115 ft 147 kts 171°
2026-04-12 04:18 39.50681 116.38902 103 ft 118 kts 174°
2026-04-12 04:18 39.50025 116.39004 100 ft 73 kts 173°
2026-04-12 04:19 39.49617 116.39068 106 ft 43 kts 173°
2026-04-12 04:19 39.49440 116.39112 105 ft 23 kts 161°
2026-04-12 04:19 39.49311 116.39207 102 ft 19 kts 144°
2026-04-12 04:19 39.49224 116.39284 96 ft 16 kts 146°
2026-04-12 04:20 39.49125 116.39370 95 ft 18 kts 147°
2026-04-12 04:20 39.49049 116.39437 95 ft 11 kts 146°
2026-04-12 04:20 39.48995 116.39513 94 ft 12 kts 108°
2026-04-12 04:20 39.49011 116.39619 93 ft 12 kts 76°
2026-04-12 04:21 39.49024 116.39728 94 ft 12 kts 82°
2026-04-12 04:21 39.49034 116.39839 97 ft 12 kts 83°
2026-04-12 04:21 39.49045 116.39949 100 ft 12 kts 83°
2026-04-12 04:21 39.49055 116.40059 105 ft 12 kts 83°
2026-04-12 04:22 39.49067 116.40182 98 ft 17 kts 83°
2026-04-12 04:22 39.49079 116.40309 94 ft 10 kts 78°
2026-04-12 04:22 39.49131 116.40366 94 ft 11 kts
2026-04-12 04:22 39.49207 116.40358 93 ft 11 kts 355°
2026-04-12 04:23 39.49284 116.40351 93 ft 11 kts 353°
2026-04-12 04:23 39.49362 116.40337 92 ft 11 kts 352°
2026-04-12 04:23 39.49442 116.40324 93 ft 12 kts 355°
2026-04-12 04:23 39.49525 116.40313 93 ft 12 kts 354°
2026-04-12 04:24 39.49608 116.40300 93 ft 12 kts 352°
2026-04-12 04:24 39.49690 116.40284 95 ft 12 kts 352°
2026-04-12 04:24 39.49774 116.40271 93 ft 12 kts 353°
2026-04-12 04:24 39.49859 116.40259 93 ft 13 kts 353°
2026-04-12 04:25 39.49948 116.40245 93 ft 13 kts 353°
2026-04-12 04:25 39.50036 116.40231 93 ft 10 kts 353°
2026-04-12 04:25 39.50100 116.40252 95 ft 10 kts 45°
2026-04-12 04:25 39.50117 116.40340 94 ft 11 kts 83°
2026-04-12 04:26 39.50127 116.40440 93 ft 12 kts 83°
2026-04-12 04:26 39.50136 116.40548 90 ft 12 kts 83°
2026-04-12 04:26 39.50147 116.40659 93 ft 12 kts 83°
2026-04-12 04:26 39.50157 116.40770 91 ft 12 kts 83°
2026-04-12 04:27 39.50170 116.40884 90 ft 13 kts 82°
2026-04-12 04:27 39.50180 116.41003 91 ft 14 kts 84°
2026-04-12 04:27 39.50192 116.41124 92 ft 14 kts 82°
2026-04-12 04:27 39.50204 116.41245 92 ft 14 kts 83°
2026-04-12 04:28 39.50214 116.41365 93 ft 13 kts 84°
2026-04-12 04:28 39.50229 116.41449 91 ft 9 kts 58°
2026-04-12 04:28 39.50284 116.41472 92 ft 9 kts 353°
2026-04-12 04:28 39.50350 116.41460 94 ft 10 kts 352°
2026-04-12 04:29 39.50423 116.41448 92 ft 11 kts 353°
2026-04-12 04:29 39.50502 116.41436 92 ft 12 kts 353°
2026-04-12 04:29 39.50584 116.41402 93 ft 13 kts 338°
2026-04-12 04:29 39.50671 116.41372 92 ft 13 kts
2026-04-12 04:30 39.50755 116.41405 92 ft 6 kts 25°
2026-04-12 04:30 39.50790 116.41426 91 ft 0 kts 24°
2026-04-12 04:30 39.50791 116.41426 91 ft 0 kts 24°